Weather History for Rock Hill, SC

Change the Weather History Date:

Sunday, February 17, 2013

  Actual Average Record
Temperature  
Mean Temperature 31 °F -  
Max Temperature 41 °F 56 °F 76 °F (1976)
Min Temperature 21 °F 35 °F 6 °F (1958)
Degree Days  
Heating Degree Days 34    
Moisture  
Dew Point 16 °F    
Average Humidity 60    
Maximum Humidity 88    
Minimum Humidity 29    
Precipitation  
Precipitation 0.00 in - - ()
Sea Level Pressure  
Sea Level Pressure 30.18 in    
Wind  
Wind Speed 6 mph (WNW)    
Max Wind Speed 13 mph    
Max Gust Speed 23 mph    
Visibility 10 miles    
Events Rain    
Averages and records for this station are not official NWS values.
T = Trace of Precipitation, MM = Missing Value Source: NWS Daily Summary

Daily Weather History Graph

Daily Weather History Graph

Search for Another Location

Airport:

Trip Planner

Search our weather history database for the weather conditions in past years. The results will help you decide how hot, cold, wet, or windy it might be!

Date:

Astronomy

Feb. 17, 2013 Rise Set
Actual Time 7:07 AM EST 6:09 PM EST
Civil Twilight 6:41 AM EST 6:34 PM EST
Nautical Twilight 6:12 AM EST 7:04 PM EST
Astronomical Twilight 5:43 AM EST 7:33 PM EST
Moon 11:17 AM EST (2/17) 12:45 AM EST (2/17)
Length of Visible Light 11h 53m
Length of Day
11h 01m
Waxing Crescent, 49% of the Moon is Illuminated
Feb 17
Waxing Crescent
Feb 17
First Quarter
Feb 25
Full
Mar 4
Last Quarter
Mar 11
New

Hourly Weather History & Observations

Time (EST) Temp. Windchill Dew Point Humidity Pressure Visibility Wind Dir Wind Speed Gust Speed Precip Events Conditions
12:54 AM 26.1 °F 19.4 °F 19.9 °F 78% 30.05 in 10.0 mi West 5.8 mph - N/A   Clear
1:54 AM 23.0 °F 17.0 °F 19.9 °F 88% 30.06 in 10.0 mi WNW 4.6 mph - N/A   Clear
2:54 AM 23.0 °F 15.8 °F 19.0 °F 85% 30.06 in 10.0 mi West 5.8 mph - N/A   Clear
3:54 AM 24.1 °F 17.0 °F 19.0 °F 81% 30.08 in 10.0 mi West 5.8 mph - N/A   Clear
4:54 AM 21.9 °F 15.7 °F 16.0 °F 78% 30.11 in 10.0 mi West 4.6 mph - N/A   Clear
5:54 AM 21.0 °F 13.4 °F 16.0 °F 81% 30.13 in 10.0 mi WSW 5.8 mph - N/A   Clear
6:54 AM 21.9 °F 14.5 °F 14.0 °F 72% 30.16 in 10.0 mi WNW 5.8 mph - N/A   Clear
7:54 AM 23.0 °F 14.7 °F 15.1 °F 72% 30.18 in 10.0 mi West 6.9 mph - N/A   Clear
8:54 AM 25.0 °F - 19.0 °F 78% 30.19 in 10.0 mi Calm Calm - N/A   Clear
9:54 AM 28.0 °F 20.8 °F 18.0 °F 66% 30.21 in 10.0 mi West 6.9 mph - N/A   Clear
10:54 AM 30.9 °F 22.8 °F 19.0 °F 61% 30.21 in 10.0 mi WNW 9.2 mph - N/A   Clear
11:54 AM 33.1 °F 26.1 °F 19.0 °F 56% 30.22 in 10.0 mi WNW 8.1 mph - N/A   Clear
12:54 PM 35.1 °F 29.3 °F 19.0 °F 52% 30.20 in 10.0 mi WNW 6.9 mph - N/A   Clear
1:54 PM 37.9 °F 31.5 °F 18.0 °F 45% 30.18 in 10.0 mi North 9.2 mph - N/A   Mostly Cloudy
2:54 PM 39.9 °F 32.9 °F 16.0 °F 38% 30.17 in 10.0 mi WNW 11.5 mph 23.0 mph 0.00 in Rain Light Rain
3:54 PM 41.0 °F 33.9 °F 14.0 °F 33% 30.17 in 10.0 mi NW 12.7 mph - 0.00 in   Clear
4:54 PM 41.0 °F 34.7 °F 10.9 °F 29% 30.18 in 10.0 mi NW 10.4 mph 19.6 mph N/A   Clear
5:54 PM 39.0 °F 34.8 °F 12.0 °F 33% 30.20 in 10.0 mi NW 5.8 mph - N/A   Clear
6:54 PM 35.1 °F - 14.0 °F 42% 30.23 in 10.0 mi Calm Calm - N/A   Clear
7:54 PM 34.0 °F - 12.9 °F 42% 30.25 in 10.0 mi Calm Calm - N/A   Clear
8:54 PM 33.1 °F 28.7 °F 12.0 °F 42% 30.26 in 10.0 mi NW 4.6 mph - N/A   Clear
9:54 PM 28.9 °F 23.9 °F 17.1 °F 61% 30.27 in 10.0 mi WNW 4.6 mph - N/A   Clear
10:54 PM 25.0 °F 20.7 °F 18.0 °F 75% 30.30 in 10.0 mi WSW 3.5 mph - N/A   Clear
11:54 PM 28.0 °F 20.0 °F 17.1 °F 63% 30.30 in 10.0 mi WSW 8.1 mph - N/A   Clear